• In Uzbekistan
  • List of Countries
  • For 7 days
  • Water Temperature
  • Satellite Maps
  • Weather Map
  • Weather Widgets
  • user-avatar
    Login

    Hourly Weather Naberezhnyy

    Today, 22 October, Monday

    Time Temperature Precipitation Wind Pressure Humidity
    00:00 -5°C° 0 mm 2 mps 757 mmHg 73%
    01:00 -6°C° 0 mm 3 mps 757 mmHg 73%
    02:00 -6°C° 0 mm 3 mps 756 mmHg 73%
    03:00 -5°C° 0 mm 4 mps 756 mmHg 73%
    04:00 -7°C° 0 mm 4 mps 755 mmHg 77%
    05:00 -5°C° 0.4 mm 4 mps 754 mmHg 81%
    06:00 -6°C° 0.4 mm 5 mps 753 mmHg 85%
    07:00 -6°C° 0.4 mm 5 mps 752 mmHg 89%
    08:00 -5°C° 0.6 mm 5 mps 751 mmHg 89%
    09:00 -4°C° 0.6 mm 5 mps 750 mmHg 88%
    10:00 -2°C° 0.6 mm 5 mps 749 mmHg 88%
    11:00 -2°C° 0.4 mm 5 mps 748 mmHg 87%
    12:00 -1°C° 0.4 mm 4 mps 747 mmHg 86%
    13:00 -1°C° 0.4 mm 4 mps 746 mmHg 86%
    14:00 -1°C° 0.5 mm 4 mps 745 mmHg 86%
    15:00 -1°C° 0.5 mm 4 mps 745 mmHg 87%
    16:00 -1°C° 0.5 mm 4 mps 744 mmHg 88%
    17:00 -1°C° 0.4 mm 4 mps 743 mmHg 88%
    18:00 0°C° 0.4 mm 4 mps 742 mmHg 88%
    19:00 0°C° 0.4 mm 4 mps 741 mmHg 88%
    20:00 0°C° 0.4 mm 5 mps 740 mmHg 88%
    21:00 0°C° 0.4 mm 5 mps 739 mmHg 88%
    22:00 0°C° 0.4 mm 5 mps 738 mmHg 88%
    23:00 +1°C° 0.7 mm 5 mps 737 mmHg 88%

    Tomorrow, 23 October, Tuesday

    Time Temperature Precipitation Wind Pressure Humidity
    00:00 +1°C° 0.7 mm 6 mps 736 mmHg 89%
    01:00 +2°C° 0.7 mm 6 mps 735 mmHg 89%
    02:00 +2°C° 0.2 mm 6 mps 735 mmHg 87%
    03:00 +2°C° 0.2 mm 6 mps 735 mmHg 85%
    04:00 +3°C° 0.2 mm 6 mps 734 mmHg 84%
    05:00 +2°C° 0 mm 6 mps 735 mmHg 83%
    06:00 +2°C° 0 mm 6 mps 735 mmHg 82%
    07:00 +2°C° 0 mm 6 mps 736 mmHg 81%
    08:00 +1°C° 0 mm 6 mps 736 mmHg 82%
    09:00 +1°C° 0 mm 6 mps 737 mmHg 82%
    10:00 +1°C° 0 mm 5 mps 737 mmHg 83%
    11:00 +1°C° 0 mm 5 mps 738 mmHg 83%
    12:00 +1°C° 0 mm 4 mps 738 mmHg 83%
    13:00 +1°C° 0 mm 4 mps 739 mmHg 83%
    14:00 +1°C° 0 mm 4 mps 739 mmHg 85%
    15:00 +1°C° 0 mm 3 mps 739 mmHg 87%
    16:00 +1°C° 0 mm 3 mps 740 mmHg 89%
    17:00 +2°C° 0 mm 2 mps 740 mmHg 91%
    18:00 +1°C° 0 mm 2 mps 740 mmHg 93%
    19:00 +1°C° 0 mm 2 mps 740 mmHg 95%
    20:00 +1°C° 0 mm 2 mps 740 mmHg 96%
    21:00 +1°C° 0 mm 2 mps 740 mmHg 96%
    22:00 -1°C° 0 mm 2 mps 740 mmHg 96%
    23:00 +1°C° 0 mm 1 mps 740 mmHg 96%

    Day after tomorrow, 24 October, Wednesday

    Time Temperature Precipitation Wind Pressure Humidity
    00:00 +1°C° 0 mm 1 mps 740 mmHg 97%
    01:00 +1°C° 0 mm 1 mps 740 mmHg 97%
    02:00 +1°C° 0.1 mm 1 mps 740 mmHg 97%
    03:00 +1°C° 0.1 mm 1 mps 740 mmHg 97%
    04:00 +2°C° 0.1 mm 1 mps 740 mmHg 97%
    05:00 +1°C° 0.1 mm 1 mps 740 mmHg 96%
    06:00 +1°C° 0.1 mm 1 mps 740 mmHg 96%
    07:00 +1°C° 0.1 mm 1 mps 741 mmHg 96%
    08:00 +1°C° 0 mm 2 mps 741 mmHg 95%
    09:00 +1°C° 0 mm 2 mps 742 mmHg 93%
    10:00 +1°C° 0 mm 2 mps 742 mmHg 92%
    11:00 +1°C° 0 mm 2 mps 743 mmHg 91%
    12:00 +1°C° 0 mm 2 mps 743 mmHg 90%
    13:00 +2°C° 0 mm 2 mps 744 mmHg 89%
    14:00 +1°C° 0 mm 2 mps 744 mmHg 90%
    15:00 +1°C° 0 mm 2 mps 745 mmHg 91%
    16:00 -1°C° 0 mm 2 mps 745 mmHg 92%
    17:00 -1°C° 0 mm 2 mps 746 mmHg 91%
    18:00 -1°C° 0 mm 2 mps 746 mmHg 91%
    19:00 -1°C° 0 mm 2 mps 746 mmHg 90%
    20:00 -1°C° 0 mm 2 mps 746 mmHg 90%
    21:00 -1°C° 0 mm 2 mps 746 mmHg 90%
    22:00 +1°C° 0 mm 1 mps 746 mmHg 90%
    23:00 +1°C° 0 mm 1 mps 746 mmHg 90%

    25 October, Thursday

    Time Temperature Precipitation Wind Pressure Humidity
    00:00 +1°C° 0 mm 1 mps 746 mmHg 91%
    01:00 0°C° 0 mm 1 mps 746 mmHg 92%
    02:00 0°C° 0 mm 1 mps 746 mmHg 92%
    03:00 0°C° 0 mm 1 mps 746 mmHg 92%
    04:00 0°C° 0 mm 1 mps 746 mmHg 92%
    05:00 0°C° 0 mm 1 mps 745 mmHg 92%
    06:00 0°C° 0 mm 1 mps 745 mmHg 92%
    07:00 0°C° 0 mm 1 mps 745 mmHg 92%
    08:00 0°C° 0.1 mm 1 mps 745 mmHg 91%
    09:00 0°C° 0.1 mm 1 mps 745 mmHg 90%
    10:00 +1°C° 0.1 mm 1 mps 744 mmHg 88%
    11:00 +1°C° 0.1 mm 1 mps 744 mmHg 89%
    12:00 +1°C° 0.1 mm 1 mps 745 mmHg 89%
    13:00 +1°C° 0.1 mm 1 mps 745 mmHg 89%
    14:00 +1°C° 0.2 mm 1 mps 745 mmHg 91%
    15:00 +1°C° 0.2 mm 1 mps 745 mmHg 92%
    16:00 +1°C° 0.2 mm 1 mps 746 mmHg 94%
    17:00 +1°C° 0.1 mm 1 mps 746 mmHg 95%
    18:00 0°C° 0.1 mm 1 mps 746 mmHg 95%
    19:00 0°C° 0.1 mm 1 mps 747 mmHg 95%
    20:00 0°C° 0 mm 1 mps 747 mmHg 95%
    21:00 0°C° 0 mm 1 mps 747 mmHg 95%
    22:00 -1°C° 0 mm 1 mps 748 mmHg 95%
    23:00 -1°C° 0 mm 1 mps 748 mmHg 96%

    26 October, Friday

    Time Temperature Precipitation Wind Pressure Humidity
    00:00 0°C° 0 mm 1 mps 748 mmHg 96%
    01:00 0°C° 0 mm 1 mps 748 mmHg 96%
    02:00 0°C° 0 mm 1 mps 748 mmHg 96%
    03:00 -2°C° 0 mm 2 mps 748 mmHg 96%
    04:00 -1°C° 0 mm 2 mps 748 mmHg 95%
    05:00 -1°C° 0 mm 2 mps 747 mmHg 94%
    06:00 -1°C° 0 mm 3 mps 746 mmHg 94%
    07:00 -1°C° 0 mm 3 mps 746 mmHg 93%
    08:00 -1°C° 0.4 mm 3 mps 745 mmHg 91%
    09:00 -1°C° 0.4 mm 4 mps 744 mmHg 89%
    10:00 -1°C° 0.4 mm 4 mps 743 mmHg 87%
    11:00 0°C° 0.9 mm 4 mps 741 mmHg 88%
    12:00 0°C° 0.9 mm 4 mps 740 mmHg 90%
    13:00 +1°C° 0.9 mm 3 mps 739 mmHg 91%
    14:00 +1°C° 1.3 mm 4 mps 738 mmHg 92%
    15:00 +1°C° 1.3 mm 4 mps 737 mmHg 92%
    16:00 +3°C° 1.3 mm 4 mps 736 mmHg 93%
    17:00 +3°C° 0.5 mm 4 mps 735 mmHg 92%
    18:00 +3°C° 0.5 mm 5 mps 735 mmHg 91%
    19:00 +3°C° 0.5 mm 5 mps 734 mmHg 90%
    20:00 +3°C° 0.1 mm 5 mps 734 mmHg 91%
    21:00 +5°C° 0.1 mm 5 mps 734 mmHg 91%
    22:00 +5°C° 0.1 mm 5 mps 733 mmHg 91%
    23:00 +5°C° 0.1 mm 5 mps 733 mmHg 92%

    27 October, Saturday

    Time Temperature Precipitation Wind Pressure Humidity
    00:00 +4°C° 0.1 mm 4 mps 733 mmHg 92%
    01:00 +4°C° 0.1 mm 4 mps 734 mmHg 93%
    02:00 +4°C° 0 mm 4 mps 734 mmHg 92%
    03:00 +3°C° 0 mm 4 mps 734 mmHg 91%
    04:00 +3°C° 0 mm 4 mps 734 mmHg 90%
    05:00 +3°C° 0 mm 4 mps 734 mmHg 90%
    06:00 +1°C° 0 mm 4 mps 734 mmHg 89%
    07:00 +1°C° 0 mm 4 mps 734 mmHg 89%
    08:00 +1°C° 0.1 mm 4 mps 734 mmHg 88%
    09:00 +3°C° 0.1 mm 4 mps 734 mmHg 87%
    10:00 +2°C° 0.1 mm 5 mps 734 mmHg 86%
    11:00 +2°C° 0.1 mm 5 mps 734 mmHg 83%
    12:00 +1°C° 0.1 mm 5 mps 734 mmHg 80%
    13:00 +1°C° 0.1 mm 5 mps 734 mmHg 77%
    14:00 +1°C° 0 mm 5 mps 735 mmHg 79%
    15:00 0°C° 0 mm 5 mps 735 mmHg 80%
    16:00 0°C° 0 mm 5 mps 735 mmHg 81%
    17:00 0°C° 0 mm 4 mps 735 mmHg 82%
    18:00 0°C° 0 mm 4 mps 735 mmHg 82%
    19:00 -1°C° 0 mm 4 mps 735 mmHg 82%
    20:00 -1°C° 0 mm 4 mps 735 mmHg 83%
    21:00 -1°C° 0 mm 4 mps 735 mmHg 83%
    22:00 -1°C° 0 mm 4 mps 735 mmHg 84%
    23:00 -1°C° 0.1 mm 4 mps 735 mmHg 83%

    28 October, Sunday

    Time Temperature Precipitation Wind Pressure Humidity
    00:00 -1°C° 0.1 mm 5 mps 735 mmHg 83%
    01:00 -1°C° 0.1 mm 5 mps 735 mmHg 82%
    02:00 -1°C° 0.1 mm 5 mps 735 mmHg 81%
    03:00 -1°C° 0.1 mm 5 mps 735 mmHg 81%
    04:00 -1°C° 0.1 mm 5 mps 735 mmHg 80%
    05:00 -1°C° 0.2 mm 5 mps 735 mmHg 81%
    06:00 -1°C° 0.2 mm 5 mps 735 mmHg 81%
    07:00 -1°C° 0.2 mm 5 mps 735 mmHg 81%
    08:00 -1°C° 0.3 mm 5 mps 735 mmHg 82%
    09:00 -1°C° 0.3 mm 5 mps 735 mmHg 83%
    10:00 -1°C° 0.3 mm 5 mps 735 mmHg 84%
    11:00 0°C° 0.3 mm 5 mps 735 mmHg 84%
    12:00 0°C° 0.3 mm 5 mps 736 mmHg 85%
    13:00 0°C° 0.3 mm 4 mps 736 mmHg 85%
    14:00 0°C° 0.3 mm 4 mps 736 mmHg 86%
    15:00 0°C° 0.3 mm 4 mps 737 mmHg 87%
    16:00 0°C° 0.3 mm 4 mps 737 mmHg 88%
    17:00 -1°C° 0.1 mm 4 mps 738 mmHg 88%
    18:00 -1°C° 0.1 mm 4 mps 738 mmHg 88%
    19:00 0°C° 0.1 mm 3 mps 739 mmHg 88%
    20:00 0°C° 0.2 mm 3 mps 739 mmHg 89%
    21:00 0°C° 0.2 mm 3 mps 740 mmHg 89%
    22:00 0°C° 0.2 mm 3 mps 741 mmHg 90%
    23:00 -1°C° 0.2 mm 4 mps 741 mmHg 89%
    Show more